Weather History for Burbank, CA

Change the Weather History Date:

Saturday, January 26, 2013

  Actual Average Record
Temperature  
Mean Temperature 59 °F 55 °F  
Max Temperature 66 °F 68 °F 84 °F (2012)
Min Temperature 52 °F 42 °F 30 °F (1944)
Degree Days  
Heating Degree Days 6 10  
Month to date heating degree days 270 266  
Since 1 July heating degree days 727 833  
Cooling Degree Days 0 0  
Month to date cooling degree days 0 0  
Year to date cooling degree days 0 0  
Growing Degree Days 8 (Base 50)    
Moisture  
Dew Point 54 °F    
Average Humidity 82    
Maximum Humidity 100    
Minimum Humidity 63    
Precipitation  
Precipitation T in 0.11 in 4.06 in (1956)
Month to date precipitation 0.77 2.91  
Year to date precipitation 0.77 2.91  
Since 1 July precipitation 3.57 7.67  
Sea Level Pressure  
Sea Level Pressure 29.91 in    
Wind  
Wind Speed 5 mph (SSE)    
Max Wind Speed 13 mph    
Max Gust Speed 14 mph    
Visibility 9 miles    
Events Rain    
T = Trace of Precipitation, MM = Missing Value Source: NWS Daily Summary

Daily Weather History Graph

Daily Weather History Graph

Search for Another Location

Airport:

Trip Planner

Search our weather history database for the weather conditions in past years. The results will help you decide how hot, cold, wet, or windy it might be!

Date:

Astronomy

Jan. 26, 2013 Rise Set
Actual Time 6:54 AM PST 5:18 PM PST
Civil Twilight 6:27 AM PST 5:44 PM PST
Nautical Twilight 5:57 AM PST 6:14 PM PST
Astronomical Twilight 5:27 AM PST 6:44 PM PST
Moon 5:15 PM PST (1/26) 6:16 AM PST (1/26)
Length of Visible Light 11h 16m
Length of Day
10h 23m
Full, 100% of the Moon is Illuminated
Jan 26
Full
Jan 26
Full
Feb 3
Last Quarter
Feb 9
New
Feb 17
First Quarter

Hourly Weather History & Observations

Time (PST) Temp. Dew Point Humidity Pressure Visibility Wind Dir Wind Speed Gust Speed Precip Events Conditions
12:53 AM 57.9 °F 54.0 °F 87% 29.92 in 10.0 mi Calm Calm - 0.00 in Rain Light Rain
1:29 AM 57.2 °F 55.4 °F 94% 29.95 in 10.0 mi Calm Calm - 0.00 in   Overcast
1:53 AM 57.0 °F 54.0 °F 89% 29.92 in 10.0 mi Calm Calm - 0.00 in   Overcast
2:21 AM 57.2 °F 55.4 °F 94% 29.94 in 9.0 mi Calm Calm - 0.00 in   Overcast
2:35 AM 57.2 °F 53.6 °F 88% 29.93 in 10.0 mi Calm Calm - 0.00 in   Overcast
2:53 AM 57.0 °F 54.0 °F 89% 29.91 in 10.0 mi NW 3.5 mph - 0.00 in   Overcast
3:53 AM 57.0 °F 53.1 °F 87% 29.89 in 5.0 mi WNW 5.8 mph - 0.00 in Rain Light Rain
4:53 AM 57.0 °F 53.1 °F 87% 29.88 in 10.0 mi WSW 3.5 mph - 0.00 in   Overcast
5:53 AM 57.0 °F 53.1 °F 87% 29.88 in 10.0 mi Calm Calm - 0.00 in   Overcast
6:53 AM 55.9 °F 53.1 °F 90% 29.88 in 10.0 mi Calm Calm - N/A   Overcast
7:53 AM 57.0 °F 53.1 °F 87% 29.90 in 10.0 mi East 3.5 mph - N/A   Overcast
8:53 AM 59.0 °F 53.1 °F 81% 29.91 in 10.0 mi Calm Calm - N/A   Overcast
9:53 AM 61.0 °F 53.1 °F 75% 29.91 in 10.0 mi WSW 3.5 mph - N/A   Overcast
10:53 AM 64.0 °F 53.1 °F 67% 29.90 in 10.0 mi SSE 3.5 mph - N/A   Partly Cloudy
11:53 AM 64.4 °F 55.4 °F 73% 29.89 in 10.0 mi SE 5.8 mph - N/A   Mostly Cloudy
12:53 PM 66.2 °F 55.4 °F 68% 29.87 in 10.0 mi SE 6.9 mph - N/A   Scattered Clouds
1:53 PM 66.2 °F 53.6 °F 64% 29.86 in 10.0 mi SSE 6.9 mph - N/A   Scattered Clouds
2:53 PM 66.2 °F 53.6 °F 64% 29.87 in 10.0 mi South 9.2 mph - N/A   Scattered Clouds
3:53 PM 64.4 °F 53.6 °F 68% 29.87 in 10.0 mi South 8.1 mph - N/A   Scattered Clouds
4:53 PM 62.6 °F 53.6 °F 72% 29.87 in 10.0 mi SSE 8.1 mph - N/A   Mostly Cloudy
5:53 PM 62.6 °F 53.6 °F 72% 29.89 in 10.0 mi SSE 6.9 mph - N/A   Mostly Cloudy
6:53 PM 57.2 °F 53.6 °F 88% 29.91 in 10.0 mi SE 9.2 mph - N/A   Mostly Cloudy
7:53 PM 57.0 °F 54.0 °F 89% 29.94 in 10.0 mi South 5.8 mph - N/A   Mostly Cloudy
8:01 PM 55.4 °F 53.6 °F 94% 29.96 in 10.0 mi South 5.8 mph - N/A   Overcast
8:25 PM 55.4 °F 53.6 °F 94% 29.96 in 4.0 mi SSE 8.1 mph - N/A   Overcast
8:53 PM 53.6 °F 51.8 °F 94% 29.94 in 3.0 mi SE 9.2 mph - N/A   Overcast
9:53 PM 55.0 °F 54.0 °F 96% 29.96 in 3.0 mi SSE 6.9 mph - N/A   Overcast
10:53 PM 51.8 °F 51.8 °F 100% 29.97 in 2.0 mi South 5.8 mph - N/A   Overcast
11:53 PM 51.8 °F 51.8 °F 100% 29.96 in 2.0 mi SE 6.9 mph - N/A   Overcast